Location: São Paulo
(23.5507°S, 46.6334°W)
Time: 07:06:08
(UTC-03:00)

Explorer 7 - Pass Details

Date: 18 February 2026
Orbit: 430 x 541 km, 50.2° (Epoch: 10 March)

Event Time Altitude Azimuth Distance (km) Brightness Sun altitude
Rises 01:27:13 0° 316° (NW) 2,695 - -51.2°
Reaches altitude 10° 01:29:27 10° 315° (NW) 1,806 - -51.0°
Maximum altitude 01:33:34 79° 229° (SW) 555 - -50.5°
Drops below altitude 10° 01:37:41 10° 141° (SE) 1,792 - -50.1°
Sets 01:39:53 0° 139° (SE) 2,672 - -49.8°
